#timestamp,LO_Frequency,Hit,StdDev 
1509181215.4,286047004.8,N
1509181235.2,286047000.0,N
1509181255.0,286046997.3,N
1509181256.0,286046997.3,N
1509181275.8,286046996.1,N
1509181295.6,286046995.5,N
1509181315.4,286046999.0,N
1509181335.3,286046993.4,N
1509181355.1,286046990.7,N
1509181375.9,286046993.2,N
1509181395.7,286046992.2,N
1509181415.5,286046996.0,N
1509181435.4,286046992.7,N
1509181455.2,286046993.6,N
1509181475.0,286046998.2,N
1509181475.9,286046998.2,N
1509181495.8,286046997.8,N
1509181515.6,286047000.2,N
1509181535.4,286047000.7,N
1509181555.3,286047000.5,N
1509181575.1,286047001.2,N
1509181576.0,286047001.2,N
1509181595.8,286047000.8,N
1509181615.7,286047001.4,N
1509181635.5,286047006.0,N
1509181655.3,286046999.1,N
1509181675.2,286047000.7,N
1509181695.9,286047002.0,N
1509181715.7,286047005.3,N
1509181735.6,286047003.9,N
1509181755.4,286047004.7,N
1509181775.2,286047007.7,N
1509181795.1,286047009.1,N
1509181796.0,286047009.1,N
1509181815.8,286047013.5,N
1509181835.6,286047011.8,N
1509181855.5,286047013.9,N
1509181875.3,286047010.3,N
1509181895.1,286047008.2,N
1509181915.9,286047010.1,N
1509181935.7,286047009.0,N
1509181955.5,286047005.0,N
1509181975.4,286047003.3,N
1509181995.2,286047001.5,N
1509182015.0,286047002.3,N
1509182016.0,286047002.3,N
1509182035.8,286046999.7,N
1509182055.6,286047002.5,N
1509182075.5,286047002.1,N
1509182095.3,286047005.1,N
1509182115.1,286047006.2,N
1509182135.9,286047007.2,N
1509182155.7,286047001.5,N
1509182175.5,286047002.5,N
1509182195.4,286047005.7,N
1509182215.2,286046999.8,N
1509182235.0,286046999.7,N
1509182235.9,286046999.7,N
1509182255.8,286047003.8,N
1509182275.6,286047006.4,N
1509182295.4,286047008.8,N
1509182315.3,286047011.8,N
1509182335.1,286047005.0,N
1509182336.0,286047005.0,N
1509182355.8,286047002.9,N
1509182375.7,286047003.8,N
1509182395.5,286047001.3,N
1509182415.3,286047003.4,N
1509182435.2,286047007.8,N
1509182455.9,286047011.2,Y
1509182475.7,286047005.8,P
1509182495.6,286047002.9,P
1509182515.4,286047007.5,P
1509182535.2,286047002.8,N
1509182555.1,286046997.2,N
1509182556.0,286046997.2,N
1509182575.8,286046993.8,N
1509182595.6,286046995.0,N
1509182615.5,286047000.3,N
1509182635.3,286046998.9,N
1509182655.1,286046996.5,N
1509182675.9,286046998.7,N
1509182695.7,286046999.4,N
1509182715.6,286046993.4,N
1509182735.4,286046993.6,N
1509182755.2,286046995.3,N
1509182775.1,286046997.8,N
1509182776.0,286046997.8,N
1509182795.8,286047001.2,N
1509182815.6,286047000.7,N
1509182835.5,286046999.7,N
1509182855.3,286047005.3,N
1509182875.1,286047003.1,N
1509182895.9,286047004.6,N
1509182915.7,286047005.5,N
1509182935.5,286047007.3,N
1509182955.4,286047001.4,N
1509182975.2,286047001.0,N
1509182995.0,286046998.2,N
1509182995.9,286046998.2,N
1509183015.8,286046998.5,N
1509183035.6,286046996.4,N
1509183055.4,286046997.2,N
1509183075.3,286046996.8,N
1509183095.1,286046994.8,N
1509183115.8,286046992.2,N
1509183135.7,286046989.7,N
1509183155.5,286046991.5,N
1509183175.3,286046989.6,N
1509183195.2,286046989.3,N
1509183215.0,286046988.3,N
1509183215.9,286046988.3,N
1509183235.7,286046987.9,N
1509183255.6,286046989.0,N
1509183275.4,286046994.4,N
1509183295.2,286046996.0,N
1509183315.1,286046995.3,N
1509183316.0,286046995.3,N
1509183335.8,286046993.8,N
1509183355.7,286046994.5,N
1509183375.5,286046994.2,N
1509183395.3,286046998.0,N
1509183415.2,286046995.4,N
1509183435.9,286046995.4,N
1509183455.7,286046995.4,N
1509183475.6,286046998.4,N
1509183495.4,286047001.6,N
1509183515.2,286047000.6,N
1509183535.1,286047000.4,N
1509183536.0,286047000.4,N
1509183555.8,286047003.3,N
1509183575.6,286047002.3,N
1509183595.5,286046999.5,N
1509183615.3,286047003.9,N
1509183635.1,286047000.4,N
1509183655.9,286047003.3,N
1509183675.7,286047005.2,N
1509183695.5,286047004.4,N
1509183715.4,286047002.6,N
1509183735.2,286047001.8,N
1509183755.0,286047005.1,N
1509183755.9,286047005.1,N
1509183775.8,286047008.6,N
1509183795.6,286047009.3,N
1509183815.4,286047015.2,Y
1509183835.3,286047013.5,P
1509183855.1,286047012.0,N
1509183875.8,286047007.7,N
1509183895.7,286047008.8,N
1509183915.5,286047008.5,N
1509183935.3,286047009.0,N
1509183955.2,286047010.8,N
1509183975.0,286047010.1,N
1509183975.9,286047010.1,N
1509183995.8,286047012.4,Y
1509184015.6,286046998.6,P
1509184035.4,286047000.8,N
1509184055.3,286046995.0,N
1509184075.1,286046994.0,N
1509184076.0,286046994.0,N
1509184095.8,286046994.1,N
1509184115.7,286046993.1,N
1509184135.5,286046993.6,N
1509184155.3,286046995.5,N
1509184175.2,286046998.4,N
1509184195.9,286046996.9,N
1509184215.7,286047000.7,N
1509184235.6,286047002.0,N
1509184255.4,286046997.1,N
1509184275.2,286046998.8,N
1509184295.1,286047000.9,N
1509184296.0,286047000.9,N
1509184315.8,286047000.6,N
1509184335.6,286047000.6,N
1509184355.5,286047004.9,N
1509184375.3,286047008.8,N
1509184395.1,286047006.6,N
1509184415.9,286047004.9,N
1509184435.7,286047003.1,N
1509184455.5,286047001.5,N
1509184475.4,286047001.6,N
1509184495.2,286047004.6,N
1509184515.1,286047005.7,N
1509184516.0,286047005.7,N
1509184535.8,286047006.7,N
1509184555.6,286047010.8,N
1509184575.5,286047009.7,N
1509184595.3,286047007.9,N
1509184615.1,286047009.6,N
1509184635.9,286047009.8,N
1509184655.7,286047012.2,N
1509184675.5,286047013.4,N
1509184695.4,286047010.8,N
1509184715.2,286047010.4,N
1509184735.0,286047009.1,N
1509184735.9,286047009.1,N
1509184755.8,286047006.4,N
1509184775.6,286047006.2,N
1509184795.4,286047009.9,N
